Вернуться в каталог

STARLINK-37097

АктивенСвязьVLEO
NORAD 68238·PAYLOAD·🇺🇸 United States

Запущен Mar 17, 2026 с Vandenberg Space Force Base

Loading…

Ближайшие Пролёты (ближайшие 24 часа)

TLE

СвежийSource: CelesTrak SupGP

Эпоха: Sep 15, 2026, 04:20 UTC

1 68238C 26054G   26258.18104167  .00022110  00000+0  65334-3 0  2582
2 68238  53.1573 126.5169 0001464  61.6611  40.4185 15.34374305    17

Отслеживайте STARLINK-37097 в реальном времени с AllMySat

Download on the App Store